Home > Weather > Minot > Past weeks

Flag for USA Past Weather in Minot, North Dakota, USA — Yesterday and Last 2 Weeks

Now
59 °F

Overcast.


Feels Like: 60 °F
Forecast: 57 / 64 °F
Wind: 3 mph from Northwest

Location: Minot International Airport

Current Time: May 25, 2016 at 10:11:17 AM

Latest Report: May 25, 2016 at 8:54 AM


Visibility: 10 mi

Pressure: 29.81 "Hg

Humidity: 87%

Dew Point: 55 °F

Location of MinotLocation

Past Weather in Minot — Graph

°F

Minot Temperature Yesterday

Maximum temperature yesterday: 78 °F (at 4:54 PM)
Minimum temperature yesterday: 47 °F (at 4:54 AM)
Average temperature yesterday: 65 °F

High & Low Weather Summary for the Past Weeks

 TemperatureHumidityPressure
High85 °F (May 22, 5:54 PM)90% (May 25, 6:54 AM)30.34 "Hg (May 25, 6:54 AM)
Low35 °F (May 13, 5:54 AM)16% (May 23, 12:54 PM)29.53 "Hg (May 22, 7:54 PM)
Average60 °F46%29.94 "Hg
* Reported May 10 7:54 AM — May 25 7:54 AM, Minot, Weather by CustomWeather, © 2016

Note: Actual official high and low records may vary slightly from our data, if they occured in-between our weather recording intervals... More about our weather records

Advertising

Minot Weather History for the Previous 24 Hours

Scroll right to see more
 ConditionsComfort  
Time TempWeatherWind HumidityBarometerVisibility
7:54 AM
Wed, May 25
58 °FLight rain. Overcast.6 mph87%29.82 "Hg10 mi
6:54 AM58 °FRain. Fog.No wind90%29.84 "Hg4 mi
5:54 AM59 °FOvercast.5 mph87%29.83 "Hg10 mi
4:54 AM57 °FLight rain. Mostly cloudy.8 mph87%29.83 "Hg9 mi
3:54 AM59 °FRain. Mostly cloudy.8 mph78%29.87 "Hg4 mi
2:54 AM60 °FMostly cloudy.No wind67%29.85 "Hg10 mi
1:54 AM62 °FMostly cloudy.5 mph52%29.86 "Hg10 mi
12:54 AM61 °FPassing clouds.3 mph52%29.86 "Hg10 mi
11:54 PM
Tue, May 24
61 °FPassing clouds.6 mph52%29.86 "Hg10 mi
10:54 PM60 °FClear.6 mph53%29.85 "Hg10 mi
9:54 PM65 °FSunny.7 mph49%29.85 "Hg10 mi
8:54 PM71 °FSunny.6 mph36%29.83 "Hg10 mi
7:54 PM75 °FSunny.6 mph30%29.83 "Hg10 mi
6:54 PM76 °FSunny.6 mph26%29.84 "Hg10 mi
5:54 PM78 °FPassing clouds.9 mph25%29.85 "Hg10 mi
4:54 PM78 °FScattered clouds.12 mph25%29.86 "Hg10 mi
3:54 PM75 °FBroken clouds.8 mph27%29.87 "Hg10 mi
2:54 PM76 °FScattered clouds.10 mph26%29.87 "Hg10 mi
1:54 PM74 °FScattered clouds.8 mph27%29.87 "Hg10 mi
12:54 PM75 °FSunny.13 mph28%29.87 "Hg10 mi
11:54 AM73 °FScattered clouds.14 mph30%29.86 "Hg10 mi
10:54 AM69 °FSunny.8 mph39%29.86 "Hg10 mi
Weather by CustomWeather, © 2016

See weather overviewHow to use our weather pages